Location: Eisingen in Unterfranken
(49.7591°N, 9.8347°E)
Time: 13:18:14
(UTC+01:00)

N. Korean satellite - Pass Details

Date: 10 December 2022
Orbit: 407 x 441 km, 97.3° (Epoch: 05 February)

Event Time Altitude Azimuth Distance (km) Brightness Sun altitude
Rises 05:09:46 0° 21° (NNE) 2,505 10.4 -27.4°
Reaches altitude 10° 05:12:01 10° 33° (NNE) 1,616 9.5 -27.0°
Maximum altitude 05:15:06 29° 96° (E) 862 8.4 -26.5°
Drops below altitude 10° 05:18:06 10° 158° (SSE) 1,576 9.4 -26.0°
Sets 05:20:16 0° 170° (S) 2,429 10.3 -25.7°
